Location: Warwick
(41.7000°N, 71.4170°W)
Time: 19:28:40
(UTC-05:00)

BREEZE-M DEB (TANK) - Visible Passes

Search period start: 31 January 2015 00:00
Search period end: 10 February 2015 00:00
Orbit: 316 x 15979 km, 49.5° (Epoch: 31 January)

Date Brightness Start Highest point End Pass type
(mag) Time Alt. Az. Time Alt. Az. Time Alt. Az.
31 Jan 5.7 04:57:21 31° W 05:05:47 78° NNW 06:45:24 10° E visible
01 Feb 5.8 05:09:28 26° W 05:19:19 75° N 07:09:29 10° E visible
02 Feb 7.0 00:31:09 12° E 00:31:09 12° E 00:35:44 10° ENE visible
02 Feb 6.0 05:21:33 22° W 05:32:58 74° N 07:33:02 10° E visible
03 Feb 6.9 00:43:12 16° E 00:43:12 16° E 00:51:49 10° ENE visible
03 Feb 6.1 05:33:37 19° W 05:46:44 73° N 07:55:31 10° ESE visible
04 Feb 6.7 00:55:14 21° E 00:55:14 21° E 01:07:07 10° ENE visible
04 Feb 6.2 05:45:38 15° W 06:00:37 73° N 08:16:41 10° ESE visible
05 Feb 6.5 01:07:14 26° E 01:07:14 26° E 01:22:09 10° NE visible
05 Feb 6.4 05:57:38 12° W 06:14:37 74° N 08:36:32 10° ESE visible
06 Feb 6.3 01:19:12 31° E 01:19:12 31° E 01:37:08 10° NE visible
06 Feb 6.5 06:09:42 10° WNW 06:28:44 74° N 08:55:09 10° ESE visible
07 Feb 6.2 01:31:08 38° E 01:31:08 38° E 01:52:11 10° NE visible
08 Feb 6.0 01:43:02 44° E 01:43:02 44° E 02:07:25 10° NE visible
09 Feb 5.8 01:54:54 52° E 01:54:54 52° E 02:22:55 10° ENE visible
